sat.trackr.live / text

‹ back to catalog

STARLINK-4473

NORAD 53660 · 2022-105N

PAYLOAD ACTIVE UNKNOWN

§ Identity

Operator
Country
US
Launch date
2022-08-31
Launch site
AFWTR
Launch vehicle
Mass (kg)
RCS (m²)

Purposes: comms

External: N2YO · Heavens-Above · Gunter

§ Orbital elements

Epoch: 2026-09-20T21:40:49.822752Z

Period
95.64 min
Inclination
97.2831°
Eccentricity
0.0002124
Mean motion
15.05652820 rev/d
Perigee alt
548.0 km
Apogee alt
551.0 km
Semi-major
6,927.6 km
B*
-1.3948e-6
RAAN
137.6977°
Arg perigee
76.5892°
Mean anomaly
283.5572°
Rev number
22,260

§ Raw data

STARLINK-44731 53660U 22105N   26263.90335443 -.00000076  00000+0 -13948-5 0  99942 53660  97.2831 137.6977 0002124  76.5892 283.5572 15.05652820222606

JSON: /api/v1/satellites/53660 · /tle

For live sub-satellite position, see the globe view (requires WebGL).

§ Visibility from observer

Set your observer location to see the next 7 days of passes ≥ 10°. The values pass through the URL so the page stays shareable.

No JS? Fill the form by hand. The geolocation button needs JavaScript.